[Date Prev][Date Next][Thread Prev][Thread Next] - [Date Index][Thread Index][Author Index]
2 Line ISS Keps 12-7
- Subject: [sarex] 2 Line ISS Keps 12-7
- From: "Dave Larsen PhD" <doc@xxxxxxxxxxx>
- Date: Sun, 7 Dec 2003 02:01:00 -0800
ISS
1 25544U 98067A 03341.16767448 .00027858 00000-0 27831-3 0 8650
2 25544 51.6293 227.4370 0006119 216.4863 280.6806 15.65368936288044
----
Via the sarex mailing list at AMSAT.ORG courtesy of AMSAT-NA.
To unsubscribe, send "unsubscribe sarex" to Majordomo@amsat.org
AMSAT Home